ARABSAT-5A

Last updated on Nov. 19, 2019, 4:25 a.m. UTC

1 36745U 10032B   19322.29216042  .00000158  00000-0  00000+0 0  9997
2 36745   0.0729  50.6818 0001849 137.7856   4.2640  1.00270062 34531
UTC
Height (km)
Latitude
Longitude
Inclination
Orbital Period
UTC large
Height (km)
Speed (km/s)
/
Latitude / Longitude
Inclination (degrees)
Orbital Period (minutes)
Azimuth
Elevation
Range (km)
Doppler Factor
iOS Compass Heading
iOS Angle

Next 30 passes for location: Hong Kong

Rise time Rise Azimuth (degrees) Set time Set Azimuth (degrees) Duration Max altitude (degrees)

No matching passes for this satellites